Location: Lane
(33.5226°N, 79.8788°W)
Time: 14:27:09
(UTC+00:00)

Altair - Pass Details

Date: 09 December 2023
Orbit: 1501 x 1682 km, 47.2° (Epoch: 25 February)

Event Time Altitude Azimuth Distance (km) Brightness Sun altitude
Rises 11:13:29 0° 222° (SW) 4,897 9.9 -12.0°
Reaches altitude 10° 11:16:40 10° 220° (SW) 3,896 9.4 -11.4°
Maximum altitude 11:26:34 72° 138° (SE) 1,686 7.9 -9.5°
Drops below altitude 10° 11:36:06 10° 56° (ENE) 3,769 10.1 -7.6°
Sets 11:39:08 0° 55° (NE) 4,731 10.6 -7.0°
